| time (UTC) | temp C | wind direction | speed KPH | gust KPH | rain 1hr cm | rain 24hr cm | rain mn cm | humidity % | barometer mb |
| 20260507000532 | 6 | 130 | 1.6 | 3.2 | 0.00 | 0.99 | 0.99 | 94 | 1009.9 |
| 20260507000028 | 6 | 61 | 1.6 | 8.0 | 0.00 | 0.99 | 0.99 | 94 | 1009.6 |
| 20260506235526 | 6 | 303 | 3.2 | 8.0 | 0.00 | 0.99 | 0.99 | 94 | 1009.8 |
| 20260506235021 | 6 | 310 | 0.0 | 8.0 | 0.00 | 0.99 | 0.99 | 94 | 1009.9 |
| 20260506234519 | 6 | 299 | 4.8 | 9.7 | 0.00 | 0.99 | 0.99 | 94 | 1009.7 |
| 20260506234016 | 7 | 312 | 0.0 | 6.4 | 0.00 | 0.99 | 0.99 | 94 | 1009.7 |
| 20260506233512 | 7 | 308 | 8.0 | 22.5 | 0.00 | 0.99 | 0.99 | 94 | 1010.0 |
| 20260506233010 | 7 | 317 | 4.8 | 12.9 | 0.00 | 0.99 | 0.99 | 94 | 1009.8 |
| 20260506232506 | 7 | 341 | 8.0 | 19.3 | 0.00 | 0.99 | 0.99 | 94 | 1009.8 |
| 20260506232001 | 7 | 318 | 9.7 | 16.1 | 0.00 | 0.99 | 0.99 | 94 | 1009.8 |
| 20260506231459 | 7 | 247 | 3.2 | 11.3 | 0.05 | 0.99 | 0.99 | 94 | 1009.8 |
| 20260506230956 | 7 | 317 | 11.3 | 14.5 | 0.05 | 0.99 | 0.99 | 94 | 1009.7 |
| 20260506230452 | 7 | 338 | 4.8 | 22.5 | 0.00 | 0.97 | 0.97 | 94 | 1009.6 |
| 20260506225949 | 7 | 300 | 8.0 | 17.7 | 0.00 | 0.97 | 0.97 | 94 | 1009.5 |
| 20260506225447 | 7 | 312 | 14.5 | 24.1 | 0.00 | 0.97 | 0.97 | 94 | 1009.7 |
| 20260506224943 | 7 | 290 | 0.0 | 12.9 | 0.00 | 0.97 | 0.97 | 94 | 1009.6 |
| 20260506224440 | 7 | 316 | 12.9 | 16.1 | 0.00 | 0.97 | 0.97 | 94 | 1009.3 |
| 20260506223937 | 7 | 306 | 8.0 | 12.9 | 0.00 | 0.97 | 0.97 | 94 | 1009.4 |
| 20260506223432 | 7 | 317 | 0.0 | 11.3 | 0.00 | 0.97 | 0.97 | 94 | 1009.3 |
| 20260506222930 | 7 | 315 | 9.7 | 20.9 | 0.00 | 0.97 | 0.97 | 94 | 1009.5 |
| 20260506222426 | 7 | 313 | 9.7 | 16.1 | 0.00 | 0.97 | 0.97 | 94 | 1009.4 |
| 20260506221923 | 7 | 319 | 9.7 | 14.5 | 0.00 | 0.97 | 0.97 | 94 | 1009.2 |
| 20260506221420 | 7 | 348 | 9.7 | 16.1 | 0.00 | 0.97 | 0.97 | 94 | 1009.0 |
| 20260506220918 | 7 | 318 | 16.1 | 20.9 | 0.00 | 0.97 | 0.97 | 94 | 1008.9 |
| 20260506220413 | 7 | 336 | 12.9 | 27.4 | 0.00 | 0.97 | 0.97 | 94 | 1008.9 |
| 20260506215910 | 7 | 315 | 9.7 | 25.7 | 0.00 | 0.97 | 0.97 | 94 | 1008.9 |
| 20260506215407 | 7 | 320 | 8.0 | 11.3 | 0.00 | 0.97 | 0.97 | 94 | 1008.8 |
| 20260506214902 | 7 | 305 | 4.8 | 16.1 | 0.00 | 0.97 | 0.97 | 94 | 1008.9 |
| 20260506214359 | 7 | 282 | 6.4 | 20.9 | 0.00 | 0.97 | 0.97 | 94 | 1008.8 |
| 20260506213857 | 7 | 274 | 6.4 | 20.9 | 0.00 | 0.97 | 0.97 | 94 | 1008.8 |
| 20260506213354 | 7 | 318 | 16.1 | 17.7 | 0.05 | 0.97 | 0.97 | 94 | 1008.8 |
| 20260506212852 | 7 | 323 | 6.4 | 19.3 | 0.05 | 0.97 | 0.97 | 94 | 1008.5 |
| 20260506212347 | 7 | 316 | 8.0 | 20.9 | 0.00 | 0.97 | 0.97 | 94 | 1008.6 |
| 20260506211842 | 7 | 291 | 8.0 | 14.5 | 0.00 | 0.97 | 0.97 | 94 | 1008.3 |
| 20260506211339 | 7 | 322 | 8.0 | 9.7 | 0.00 | 0.97 | 0.97 | 94 | 1008.2 |
| 20260506210836 | 7 | 274 | 4.8 | 17.7 | 0.00 | 0.97 | 0.97 | 94 | 1008.2 |
| 20260506210333 | 7 | 313 | 8.0 | 17.7 | 0.00 | 0.97 | 0.97 | 94 | 1008.0 |
| 20260506205830 | 7 | 340 | 11.3 | 12.9 | 0.00 | 0.97 | 0.97 | 94 | 1008.0 |
| 20260506205326 | 7 | 325 | 12.9 | 20.9 | 0.00 | 0.97 | 0.97 | 94 | 1008.0 |
| 20260506204822 | 7 | 302 | 11.3 | 16.1 | 0.00 | 0.97 | 0.97 | 94 | 1007.9 |
| 20260506204320 | 8 | 236 | 1.6 | 12.9 | 0.00 | 0.97 | 0.97 | 94 | 1007.8 |
| 20260506203818 | 8 | 305 | 8.0 | 17.7 | 0.00 | 0.97 | 0.97 | 94 | 1007.9 |
| 20260506203315 | 8 | 306 | 9.7 | 14.5 | 0.05 | 0.97 | 0.97 | 94 | 1007.9 |
| 20260506202812 | 8 | 320 | 6.4 | 14.5 | 0.05 | 0.97 | 0.97 | 94 | 1008.0 |
| 20260506202309 | 8 | 299 | 6.4 | 17.7 | 0.05 | 0.94 | 0.94 | 94 | 1007.7 |
| 20260506201805 | 8 | 328 | 8.0 | 12.9 | 0.18 | 0.94 | 0.94 | 94 | 1007.8 |
| 20260506201302 | 8 | 281 | 6.4 | 9.7 | 0.18 | 0.94 | 0.94 | 94 | 1007.6 |
| 20260506200759 | 8 | 315 | 11.3 | 14.5 | 0.13 | 0.91 | 0.91 | 94 | 1007.7 |
| 20260506200255 | 8 | 334 | 4.8 | 16.1 | 0.13 | 0.91 | 0.91 | 94 | 1007.8 |
| 20260506195752 | 8 | 318 | 4.8 | 9.7 | 0.05 | 0.89 | 0.89 | 94 | 1007.8 |
| 20260506195248 | 8 | 323 | 4.8 | 11.3 | 0.05 | 0.89 | 0.89 | 94 | 1007.6 |
| 20260506194746 | 8 | 302 | 8.0 | 12.9 | 0.05 | 0.89 | 0.89 | 94 | 1007.7 |
| 20260506194242 | 8 | 273 | 3.2 | 8.0 | 0.05 | 0.89 | 0.89 | 94 | 1007.9 |
| 20260506193740 | 8 | 327 | 6.4 | 14.5 | 0.05 | 0.86 | 0.86 | 94 | 1007.8 |
| 20260506193236 | 8 | 269 | 3.2 | 4.8 | 0.05 | 0.86 | 0.86 | 94 | 1007.7 |
| 20260506192733 | 8 | 348 | 3.2 | 4.8 | 0.05 | 0.86 | 0.86 | 94 | 1007.8 |
| 20260506192230 | 8 | 327 | 3.2 | 9.7 | 0.05 | 0.86 | 0.86 | 94 | 1007.6 |
| 20260506191727 | 7 | 282 | 4.8 | 17.7 | 0.00 | 0.86 | 0.86 | 94 | 1007.6 |
| 20260506191223 | 7 | 318 | 8.0 | 12.9 | 0.00 | 0.86 | 0.86 | 94 | 1007.5 |
| 20260506190720 | 7 | 316 | 8.0 | 12.9 | 0.05 | 0.86 | 0.86 | 94 | 1007.4 |
| 20260506190217 | 7 | 327 | 3.2 | 14.5 | 0.05 | 0.86 | 0.86 | 94 | 1007.4 |
| 20260506185714 | 7 | 332 | 1.6 | 14.5 | 0.05 | 0.84 | 0.84 | 94 | 1007.5 |
| 20260506185210 | 7 | 329 | 6.4 | 11.3 | 0.05 | 0.84 | 0.84 | 94 | 1007.2 |
| 20260506184708 | 7 | 325 | 4.8 | 11.3 | 0.05 | 0.84 | 0.84 | 94 | 1007.4 |
| 20260506184205 | 7 | 293 | 6.4 | 12.9 | 0.05 | 0.84 | 0.84 | 94 | 1007.3 |
| 20260506183701 | 7 | 352 | 3.2 | 12.9 | 0.05 | 0.81 | 0.81 | 94 | 1007.1 |
| 20260506183157 | 7 | 341 | 3.2 | 11.3 | 0.05 | 0.81 | 0.81 | 94 | 1007.1 |
| 20260506182655 | 7 | 313 | 4.8 | 6.4 | 0.00 | 0.81 | 0.81 | 94 | 1007.4 |
| 20260506182151 | 7 | 60 | 1.6 | 6.4 | 0.05 | 0.81 | 0.81 | 94 | 1007.0 |
| 20260506181644 | 7 | 307 | 6.4 | 11.3 | 0.05 | 0.81 | 0.81 | 94 | 1006.8 |
| 20260506181141 | 7 | 342 | 3.2 | 8.0 | 0.05 | 0.81 | 0.81 | 94 | 1007.0 |
| 20260506180638 | 7 | 356 | 3.2 | 8.0 | 0.05 | 0.81 | 0.81 | 94 | 1007.1 |
| 20260506180134 | 7 | 319 | 4.8 | 6.4 | 0.00 | 0.79 | 0.79 | 94 | 1007.1 |
| 20260506175630 | 7 | 23 | 0.0 | 3.2 | 0.13 | 0.79 | 0.79 | 94 | 1007.2 |
| 20260506175126 | 7 | 4 | 0.0 | 9.7 | 0.13 | 0.79 | 0.79 | 94 | 1007.1 |
| 20260506174620 | 7 | 304 | 8.0 | 12.9 | 0.00 | 0.76 | 0.76 | 94 | 1007.1 |
| 20260506174116 | 7 | 359 | 0.0 | 9.7 | 0.00 | 0.76 | 0.76 | 94 | 1006.9 |
| 20260506173614 | 7 | 249 | 0.0 | 6.4 | 0.00 | 0.76 | 0.76 | 94 | 1006.8 |
| 20260506173110 | 7 | 330 | 0.0 | 4.8 | 0.05 | 0.76 | 0.76 | 94 | 1007.0 |
| 20260506172608 | 7 | 327 | 1.6 | 6.4 | 0.05 | 0.76 | 0.76 | 94 | 1007.0 |
| 20260506172103 | 7 | 321 | 6.4 | 9.7 | 0.00 | 0.76 | 0.76 | 94 | 1006.9 |
| 20260506171601 | 7 | 335 | 1.6 | 3.2 | 0.00 | 0.76 | 0.76 | 94 | 1006.9 |
| 20260506171059 | 7 | 302 | 3.2 | 9.7 | 0.05 | 0.76 | 0.76 | 94 | 1007.1 |
| 20260506170555 | 7 | 309 | 4.8 | 9.7 | 0.05 | 0.76 | 0.76 | 94 | 1007.0 |
| 20260506170047 | 7 | 277 | 3.2 | 14.5 | 0.00 | 0.74 | 0.74 | 94 | 1006.9 |
| 20260506165546 | 7 | 330 | 3.2 | 9.7 | 0.05 | 0.74 | 0.74 | 94 | 1007.0 |
| 20260506165042 | 7 | 20 | 0.0 | 3.2 | 0.05 | 0.74 | 0.74 | 94 | 1007.1 |
| 20260506164539 | 7 | 331 | 1.6 | 6.4 | 0.05 | 0.74 | 0.74 | 94 | 1007.1 |
| 20260506164036 | 7 | 324 | 1.6 | 8.0 | 0.05 | 0.74 | 0.74 | 94 | 1007.1 |
| 20260506163532 | 7 | 324 | 4.8 | 6.4 | 0.00 | 0.74 | 0.74 | 94 | 1007.2 |
| 20260506163027 | 7 | 307 | 8.0 | 14.5 | 0.00 | 0.74 | 0.74 | 94 | 1007.5 |
| 20260506162523 | 7 | 349 | 1.6 | 4.8 | 0.05 | 0.74 | 0.74 | 94 | 1007.4 |
| 20260506162015 | 7 | 292 | 4.8 | 6.4 | 0.05 | 0.74 | 0.74 | 94 | 1007.2 |
| 20260506161512 | 7 | 293 | 3.2 | 4.8 | 0.00 | 0.71 | 0.71 | 94 | 1007.1 |
| 20260506161009 | 7 | 316 | 3.2 | 8.0 | 0.00 | 0.71 | 0.71 | 94 | 1007.4 |
| 20260506160507 | 7 | 311 | 4.8 | 6.4 | 0.00 | 0.71 | 0.71 | 94 | 1007.5 |
| 20260506160004 | 7 | 296 | 0.0 | 4.8 | 0.00 | 0.71 | 0.71 | 94 | 1007.6 |
| 20260506155503 | 7 | 338 | 4.8 | 8.0 | 0.05 | 0.71 | 0.71 | 94 | 1007.5 |
| 20260506153634 | 7 | 322 | 0.0 | 3.2 | 0.00 | 0.71 | 0.71 | 94 | 1007.2 |
| 20260506153131 | 7 | 327 | 0.0 | 3.2 | 0.00 | 0.71 | 0.71 | 94 | 1007.3 |
| 20260506152628 | 7 | 303 | 4.8 | 6.4 | 0.00 | 0.71 | 0.71 | 94 | 1007.2 |
| 20260506152126 | 7 | 285 | 3.2 | 6.4 | 0.05 | 0.71 | 0.71 | 94 | 1007.2 |
| 20260506151624 | 7 | 325 | 8.0 | 11.3 | 0.00 | 0.71 | 0.71 | 94 | 1007.4 |
| 20260506151121 | 7 | 316 | 0.0 | 4.8 | 0.00 | 0.71 | 0.71 | 94 | 1007.4 |
| 20260506150617 | 7 | 315 | 0.0 | 11.3 | 0.00 | 0.71 | 0.71 | 94 | 1007.4 |
| 20260506150114 | 7 | 356 | 1.6 | 8.0 | 0.05 | 0.71 | 0.71 | 94 | 1007.2 |
| 20260506145611 | 7 | 41 | 0.0 | 6.4 | 0.05 | 0.71 | 0.71 | 94 | 1007.1 |
| 20260506145108 | 7 | 355 | 1.6 | 8.0 | 0.00 | 0.69 | 0.69 | 94 | 1007.1 |
| 20260506144605 | 7 | 336 | 3.2 | 8.0 | 0.00 | 0.69 | 0.69 | 94 | 1007.3 |
| 20260506144102 | 7 | 336 | 3.2 | 12.9 | 0.05 | 0.69 | 0.69 | 94 | 1007.2 |
| 20260506143600 | 7 | 336 | 0.0 | 9.7 | 0.13 | 0.69 | 0.69 | 94 | 1007.1 |
| 20260506143058 | 7 | 12 | 3.2 | 9.7 | 0.13 | 0.69 | 0.69 | 94 | 1007.2 |
| 20260506142555 | 7 | 332 | 1.6 | 4.8 | 0.13 | 0.66 | 0.66 | 94 | 1007.2 |
| 20260506142053 | 7 | 250 | 1.6 | 4.8 | 0.13 | 0.66 | 0.66 | 94 | 1007.2 |
| 20260506141551 | 7 | 350 | 1.6 | 4.8 | 0.23 | 0.66 | 0.66 | 94 | 1007.0 |
| 20260506141049 | 7 | 305 | 3.2 | 4.8 | 0.30 | 0.64 | 0.64 | 94 | 1007.2 |
| 20260506140546 | 7 | 310 | 4.8 | 9.7 | 0.30 | 0.61 | 0.61 | 94 | 1007.3 |
| 20260506140044 | 7 | 318 | 3.2 | 4.8 | 0.30 | 0.58 | 0.58 | 94 | 1007.3 |
| 20260506135540 | 7 | 331 | 0.0 | 4.8 | 0.23 | 0.56 | 0.56 | 94 | 1007.2 |
| 20260506135036 | 7 | 290 | 3.2 | 8.0 | 0.36 | 0.53 | 0.53 | 94 | 1007.2 |
| 20260506134533 | 7 | 308 | 3.2 | 4.8 | 0.48 | 0.51 | 0.51 | 94 | 1007.3 |
| 20260506134029 | 7 | 317 | 3.2 | 4.8 | 0.36 | 0.46 | 0.46 | 94 | 1007.3 |
| 20260506133526 | 7 | 321 | 1.6 | 4.8 | 0.43 | 0.43 | 0.43 | 94 | 1007.1 |
| 20260506133023 | 7 | 303 | 6.4 | 8.0 | 0.36 | 0.38 | 0.38 | 94 | 1007.5 |
| 20260506132520 | 7 | 317 | 1.6 | 4.8 | 0.30 | 0.36 | 0.36 | 94 | 1007.2 |
| 20260506132018 | 7 | 336 | 0.0 | 3.2 | 0.23 | 0.33 | 0.33 | 94 | 1007.3 |
| 20260506131515 | 7 | 72 | 1.6 | 6.4 | 0.18 | 0.30 | 0.30 | 94 | 1007.0 |
| 20260506131011 | 7 | 1 | 3.2 | 4.8 | 0.05 | 0.28 | 0.28 | 94 | 1007.1 |
| 20260506130508 | 7 | 298 | 1.6 | 4.8 | 0.05 | 0.28 | 0.28 | 94 | 1007.1 |
| 20260506130006 | 7 | 324 | 0.0 | 6.4 | 0.13 | 0.28 | 0.28 | 94 | 1007.1 |
| 20260506125504 | 8 | 316 | 1.6 | 4.8 | 0.05 | 0.25 | 0.25 | 94 | 1007.0 |
| 20260506125001 | 7 | 98 | 3.2 | 3.2 | 0.13 | 0.25 | 0.25 | 94 | 1006.9 |
| 20260506124458 | 7 | 9 | 0.0 | 3.2 | 0.18 | 0.23 | 0.23 | 94 | 1006.7 |
| 20260506123956 | 7 | 339 | 0.0 | 4.8 | 0.13 | 0.23 | 0.23 | 94 | 1006.8 |
| 20260506123454 | 7 | 8 | 0.0 | 3.2 | 0.05 | 0.20 | 0.20 | 94 | 1007.1 |
| 20260506122951 | 7 | 325 | 3.2 | 4.8 | 0.05 | 0.20 | 0.20 | 94 | 1007.0 |
| 20260506122448 | 7 | 54 | 1.6 | 3.2 | 0.00 | 0.20 | 0.20 | 94 | 1007.1 |
| 20260506121946 | 7 | 299 | 3.2 | 3.2 | 0.00 | 0.20 | 0.20 | 94 | 1007.0 |
| 20260506121443 | 7 | 307 | 3.2 | 4.8 | 0.00 | 0.20 | 0.20 | 94 | 1006.9 |
| 20260506120940 | 7 | 125 | 0.0 | 4.8 | 0.00 | 0.20 | 0.20 | 94 | 1007.5 |
| 20260506120438 | 7 | 293 | 0.0 | 4.8 | 0.05 | 0.20 | 0.20 | 94 | 1007.4 |
| 20260506115935 | 7 | 340 | 0.0 | 3.2 | 0.05 | 0.20 | 0.20 | 94 | 1007.4 |
| 20260506115433 | 7 | 40 | 0.0 | 3.2 | 0.00 | 0.18 | 0.18 | 94 | 1007.4 |
| 20260506114931 | 7 | 349 | 0.0 | 1.6 | 0.05 | 0.18 | 0.18 | 94 | 1007.3 |
| 20260506114428 | 7 | 343 | 0.0 | 1.6 | 0.18 | 0.18 | 0.18 | 94 | 1007.5 |
| 20260506113926 | 7 | 243 | 0.0 | 4.8 | 0.23 | 0.18 | 0.18 | 94 | 1007.6 |
| 20260506113424 | 7 | 7 | 0.0 | 3.2 | 0.13 | 0.15 | 0.15 | 94 | 1007.8 |
| 20260506112921 | 7 | 125 | 0.0 | 3.2 | 0.13 | 0.15 | 0.15 | 94 | 1007.8 |
| 20260506112419 | 8 | 255 | 0.0 | 3.2 | 0.05 | 0.15 | 0.15 | 94 | 1007.8 |
| 20260506111915 | 7 | 130 | 0.0 | 3.2 | 0.00 | 0.13 | 0.13 | 94 | 1007.5 |
| 20260506111413 | 7 | 168 | 0.0 | 3.2 | 0.05 | 0.13 | 0.13 | 94 | 1007.7 |
| 20260506110910 | 7 | 119 | 0.0 | 3.2 | 0.05 | 0.13 | 0.13 | 94 | 1007.8 |
| 20260506110408 | 7 | 335 | 0.0 | 3.2 | 0.05 | 0.13 | 0.13 | 94 | 1007.7 |
| 20260506105904 | 7 | 338 | 1.6 | 6.4 | 0.05 | 0.13 | 0.13 | 94 | 1007.6 |
| 20260506105400 | 7 | 306 | 3.2 | 8.0 | 0.05 | 0.10 | 0.10 | 94 | 1008.0 |
| 20260506104858 | 7 | 315 | 4.8 | 11.3 | 0.05 | 0.10 | 0.10 | 94 | 1007.8 |
| 20260506104355 | 8 | 259 | 0.0 | 11.3 | 0.05 | 0.10 | 0.10 | 94 | 1008.0 |
| 20260506103853 | 8 | 306 | 4.8 | 11.3 | 0.00 | 0.10 | 0.10 | 94 | 1008.2 |
| 20260506103350 | 8 | 320 | 6.4 | 8.0 | 0.00 | 0.10 | 0.10 | 94 | 1007.9 |
| 20260506102847 | 8 | 321 | 0.0 | 3.2 | 0.00 | 0.10 | 0.10 | 94 | 1007.7 |
| 20260506102345 | 8 | 27 | 1.6 | 3.2 | 0.00 | 0.10 | 0.10 | 94 | 1007.8 |
| 20260506101842 | 8 | 49 | 1.6 | 3.2 | 0.05 | 0.10 | 0.10 | 94 | 1007.6 |
| 20260506101338 | 8 | 260 | 1.6 | 4.8 | 0.05 | 0.10 | 0.10 | 94 | 1007.5 |
| 20260506100836 | 8 | 72 | 6.4 | 8.0 | 0.00 | 0.08 | 0.08 | 94 | 1007.7 |
| 20260506100335 | 8 | 71 | 9.7 | 9.7 | 0.00 | 0.08 | 0.08 | 94 | 1007.4 |
| 20260506095833 | 8 | 55 | 4.8 | 4.8 | 0.05 | 0.08 | 0.08 | 94 | 1007.6 |
| 20260506095329 | 8 | 293 | 0.0 | 3.2 | 0.05 | 0.08 | 0.08 | 94 | 1007.5 |
| 20260506094826 | 8 | 316 | 0.0 | 4.8 | 0.05 | 0.08 | 0.08 | 94 | 1007.9 |
| 20260506094325 | 8 | 315 | 4.8 | 4.8 | 0.13 | 0.08 | 0.08 | 94 | 1008.0 |
| 20260506093823 | 8 | 81 | 0.0 | 1.6 | 0.05 | 0.05 | 0.05 | 94 | 1007.8 |
| 20260506093319 | 8 | 319 | 0.0 | 4.8 | 0.00 | 0.05 | 0.05 | 94 | 1007.9 |
| 20260506092818 | 8 | 61 | 0.0 | 3.2 | 0.05 | 0.05 | 0.05 | 94 | 1007.7 |
| 20260506092315 | 8 | 327 | 0.0 | 6.4 | 0.05 | 0.05 | 0.05 | 94 | 1007.7 |
| 20260506091812 | 8 | 323 | 3.2 | 4.8 | 0.05 | 0.05 | 0.05 | 94 | 1007.8 |
| 20260506091309 | 8 | 335 | 3.2 | 4.8 | 0.13 | 0.03 | 0.03 | 94 | 1007.9 |
| 20260506090807 | 8 | 22 | 3.2 | 4.8 | 0.13 | 0.03 | 0.03 | 94 | 1008.2 |
| 20260506090304 | 8 | 292 | 3.2 | 6.4 | 0.05 | 0.00 | 0.00 | 94 | 1008.6 |
| 20260506085800 | 8 | 0 | 0.0 | 4.8 | 0.05 | 0.00 | 0.00 | 94 | 1008.1 |
| 20260506085257 | 8 | 95 | 0.0 | 3.2 | 0.00 | 0.00 | 0.00 | 94 | 1007.9 |
| 20260506084754 | 8 | 81 | 0.0 | 1.6 | 0.00 | 0.00 | 0.00 | 94 | 1007.9 |
| 20260506084250 | 8 | 318 | 0.0 | 4.8 | 0.00 | 0.00 | 0.00 | 94 | 1007.8 |
| 20260506083747 | 8 | 342 | 0.0 | 3.2 | 0.00 | 0.00 | 0.00 | 94 | 1007.8 |
| 20260506083245 | 8 | 340 | 0.0 | 3.2 | 0.00 | 0.00 | 0.00 | 94 | 1007.8 |
| 20260506082742 | 8 | 336 | 1.6 | 3.2 | 0.00 | 0.00 | 0.00 | 94 | 1007.9 |
| 20260506082237 | 8 | 136 | 0.0 | 4.8 | 0.00 | 0.00 | 0.00 | 94 | 1007.7 |
| 20260506081735 | 8 | 69 | 0.0 | 1.6 | 0.00 | 0.00 | 0.00 | 94 | 1007.7 |
| 20260506081232 | 8 | 66 | 0.0 | 3.2 | 0.00 | 0.00 | 0.00 | 94 | 1007.9 |
| 20260506080731 | 8 | 1 | 0.0 | 3.2 | 0.00 | 0.00 | 0.00 | 94 | 1007.8 |
| 20260506080227 | 8 | 56 | 0.0 | 1.6 | 0.00 | 0.00 | 0.00 | 94 | 1007.8 |
| 20260506073211 | 8 | 137 | 0.0 | 3.2 | 0.00 | 0.00 | 0.00 | 94 | 1008.0 |
| 20260506072707 | 8 | 110 | 0.0 | 3.2 | 0.00 | 0.00 | 0.00 | 94 | 1007.9 |
| 20260506072205 | 8 | 111 | 4.8 | 6.4 | 0.00 | 0.00 | 0.00 | 94 | 1008.3 |
| 20260506071702 | 8 | 58 | 1.6 | 3.2 | 0.00 | 0.00 | 0.00 | 94 | 1009.3 |
| 20260506071200 | 8 | 306 | 4.8 | 8.0 | 0.00 | 0.00 | 0.00 | 94 | 1009.2 |
| 20260506070657 | 8 | 106 | 1.6 | 3.2 | 0.00 | 0.00 | 0.00 | 93 | 1008.3 |
| 20260506070154 | 8 | 119 | 1.6 | 3.2 | 0.00 | 0.00 | 0.00 | 93 | 1008.9 |
| 20260506062131 | 8 | 63 | 0.0 | 4.8 | 0.00 | 0.00 | 0.00 | 93 | 1009.0 |
| 20260506061627 | 8 | 69 | 0.0 | 3.2 | 0.00 | 0.00 | 0.00 | 93 | 1009.4 |
| 20260506061125 | 8 | 328 | 0.0 | 3.2 | 0.00 | 0.00 | 0.00 | 93 | 1009.4 |
| 20260506060623 | 8 | 99 | 1.6 | 4.8 | 0.00 | 0.00 | 0.00 | 93 | 1009.2 |
| 20260506060120 | 8 | 55 | 0.0 | 3.2 | 0.00 | 0.00 | 0.00 | 93 | 1009.5 |
| 20260506051051 | 8 | 148 | 0.0 | 3.2 | 0.00 | 0.00 | 0.00 | 92 | 1010.0 |
| 20260506050549 | 8 | 157 | 0.0 | 3.2 | 0.00 | 0.00 | 0.00 | 92 | 1010.0 |
| 20260506045040 | 9 | 337 | 3.2 | 4.8 | 0.00 | 0.00 | 0.00 | 92 | 1010.0 |
| 20260506044538 | 9 | 321 | 0.0 | 6.4 | 0.00 | 0.00 | 0.00 | 92 | 1010.2 |
| 20260506044034 | 9 | 70 | 0.0 | 3.2 | 0.00 | 0.00 | 0.00 | 92 | 1009.9 |
| 20260506043531 | 9 | 28 | 3.2 | 4.8 | 0.00 | 0.00 | 0.00 | 92 | 1010.2 |
| 20260506043030 | 9 | 355 | 3.2 | 4.8 | 0.00 | 0.00 | 0.00 | 92 | 1009.9 |
| 20260506042529 | 9 | 349 | 4.8 | 8.0 | 0.00 | 0.00 | 0.00 | 92 | 1010.0 |
| 20260506042026 | 9 | 117 | 1.6 | 4.8 | 0.00 | 0.00 | 0.00 | 92 | 1010.2 |
| 20260506041525 | 9 | 316 | 3.2 | 4.8 | 0.00 | 0.00 | 0.00 | 92 | 1010.2 |
| 20260506041021 | 9 | 11 | 3.2 | 8.0 | 0.00 | 0.00 | 0.00 | 91 | 1010.4 |
| 20260506040519 | 9 | 305 | 6.4 | 11.3 | 0.00 | 0.00 | 0.00 | 91 | 1010.5 |
| 20260506040015 | 10 | 19 | 1.6 | 9.7 | 0.00 | 0.71 | 0.71 | 91 | 1010.4 |
| 20260506035512 | 10 | 55 | 1.6 | 6.4 | 0.00 | 0.71 | 0.71 | 91 | 1010.3 |
| 20260506035008 | 10 | 313 | 3.2 | 8.0 | 0.05 | 0.71 | 0.71 | 91 | 1010.4 |
| 20260506034506 | 10 | 342 | 4.8 | 11.3 | 0.05 | 0.71 | 0.71 | 90 | 1010.1 |
| 20260506034003 | 10 | 44 | 1.6 | 6.4 | 0.00 | 0.71 | 0.71 | 90 | 1010.2 |
| 20260506033500 | 10 | 327 | 3.2 | 4.8 | 0.00 | 0.71 | 0.71 | 90 | 1010.3 |
| 20260506032956 | 10 | 300 | 1.6 | 6.4 | 0.00 | 0.71 | 0.71 | 89 | 1009.9 |
| 20260506032454 | 10 | 325 | 3.2 | 4.8 | 0.00 | 0.71 | 0.71 | 89 | 1010.0 |
| 20260506031950 | 10 | 44 | 0.0 | 8.0 | 0.00 | 0.71 | 0.71 | 89 | 1010.4 |
| 20260506031448 | 10 | 68 | 1.6 | 4.8 | 0.00 | 0.71 | 0.71 | 89 | 1009.8 |
| 20260506030946 | 10 | 338 | 8.0 | 12.9 | 0.00 | 0.71 | 0.71 | 89 | 1010.5 |
| 20260506030443 | 10 | 310 | 3.2 | 4.8 | 0.00 | 0.71 | 0.71 | 89 | 1010.5 |
| 20260506025940 | 10 | 100 | 1.6 | 6.4 | 0.00 | 0.71 | 0.71 | 89 | 1010.2 |
| 20260506025437 | 10 | 148 | 1.6 | 6.4 | 0.00 | 0.71 | 0.71 | 89 | 1010.3 |
| 20260506024933 | 11 | 110 | 1.6 | 6.4 | 0.00 | 0.71 | 0.71 | 89 | 1010.3 |
| 20260506024430 | 11 | 160 | 0.0 | 3.2 | 0.00 | 0.71 | 0.71 | 89 | 1009.8 |
| 20260506023926 | 11 | 150 | 0.0 | 3.2 | 0.00 | 0.71 | 0.71 | 89 | 1009.8 |
| 20260506023423 | 11 | 64 | 3.2 | 3.2 | 0.00 | 0.71 | 0.71 | 88 | 1009.8 |
| 20260506022920 | 11 | 332 | 3.2 | 9.7 | 0.00 | 0.71 | 0.71 | 88 | 1009.9 |
| 20260506022418 | 11 | 349 | 3.2 | 11.3 | 0.00 | 0.71 | 0.71 | 88 | 1009.7 |
| 20260506021915 | 11 | 316 | 3.2 | 9.7 | 0.00 | 0.71 | 0.71 | 90 | 1009.9 |
| 20260506021413 | 11 | 322 | 3.2 | 6.4 | 0.00 | 0.71 | 0.71 | 90 | 1009.8 |
| 20260506020909 | 11 | 303 | 3.2 | 8.0 | 0.00 | 0.71 | 0.71 | 92 | 1009.7 |
| 20260506020407 | 11 | 332 | 1.6 | 3.2 | 0.00 | 0.71 | 0.71 | 93 | 1009.7 |
| 20260506015904 | 11 | 288 | 3.2 | 4.8 | 0.00 | 0.71 | 0.71 | 93 | 1009.4 |
| 20260506015402 | 11 | 43 | 0.0 | 1.6 | 0.00 | 0.71 | 0.71 | 93 | 1009.4 |
| 20260506014858 | 12 | 28 | 0.0 | 1.6 | 0.00 | 0.71 | 0.71 | 93 | 1009.6 |
| 20260506014355 | 12 | 317 | 1.6 | 3.2 | 0.00 | 0.71 | 0.71 | 93 | 1009.5 |
| 20260506013852 | 12 | 177 | 1.6 | 3.2 | 0.00 | 0.71 | 0.71 | 93 | 1009.7 |
| 20260506013350 | 12 | 56 | 0.0 | 0.0 | 0.00 | 0.71 | 0.71 | 93 | 1009.4 |
| 20260506012845 | 12 | 170 | 0.0 | 1.6 | 0.00 | 0.71 | 0.71 | 93 | 1009.1 |
| 20260506012343 | 12 | 126 | 1.6 | 3.2 | 0.00 | 0.71 | 0.71 | 92 | 1009.4 |
| 20260506011840 | 12 | 152 | 3.2 | 3.2 | 0.00 | 0.71 | 0.71 | 92 | 1009.4 |
| 20260506011336 | 12 | 100 | 3.2 | 4.8 | 0.00 | 0.71 | 0.71 | 92 | 1009.3 |
| 20260506010834 | 12 | 81 | 1.6 | 3.2 | 0.00 | 0.71 | 0.71 | 92 | 1009.3 |
| 20260506010332 | 12 | 56 | 0.0 | 0.0 | 0.00 | 0.71 | 0.71 | 92 | 1009.3 |
| 20260506005828 | 12 | 14 | 0.0 | 4.8 | 0.00 | 0.71 | 0.71 | 92 | 1009.3 |
| 20260506005325 | 12 | 317 | 1.6 | 4.8 | 0.00 | 0.71 | 0.71 | 92 | 1009.3 |
| 20260506004821 | 12 | 328 | 0.0 | 1.6 | 0.18 | 0.71 | 0.71 | 91 | 1009.2 |
| 20260506004319 | 13 | 43 | 0.0 | 3.2 | 0.43 | 0.71 | 0.71 | 91 | 1009.0 |
| 20260506003815 | 13 | 310 | 1.6 | 4.8 | 0.48 | 0.66 | 0.66 | 90 | 1009.0 |
| 20260506003312 | 13 | 341 | 0.0 | 4.8 | 0.43 | 0.61 | 0.61 | 90 | 1008.8 |
| 20260506002808 | 13 | 17 | 0.0 | 3.2 | 0.23 | 0.58 | 0.58 | 89 | 1008.7 |
| 20260506002306 | 13 | 358 | 0.0 | 1.6 | 0.66 | 0.56 | 0.56 | 87 | 1008.3 |
| 20260506001800 | 13 | 35 | 0.0 | 6.4 | 1.02 | 0.53 | 0.53 | 86 | 1008.3 |
| 20260506001258 | 15 | 306 | 3.2 | 6.4 | 0.48 | 0.43 | 0.43 | 81 | 1008.6 |